Regional Weather Roundup
Issued by NWS

Home | Current Version | Previous Version | Text Only | Print | Product List | Glossary Off
Versions: 1 2 3 4 5 6 7 8 9 10 11 12 13 14 15 16 17 18 19 20 21 22 23 24 25 26 27 28 29 30 31 32 33 34 35 36 37 38 39 40 41 42 43 44 45 46 47 48 49 50

000
ASUS43 KLSX 232257
RWRMO

WEATHER SUMMARY FOR MISSOURI
NATIONAL WEATHER SERVICE SPRINGFIELD MO
600 PM CDT TUE MAY 23 2017

NOTE: "FAIR" INDICATES FEW OR NO CLOUDS BELOW 12,000 FEET WITH NO
       SIGNIFICANT WEATHER AND/OR OBSTRUCTIONS TO VISIBILITY.
       CURRENT SKY AND/OR WEATHER CONDITIONS ARE NOT AVAILABLE FOR
       CHILLICOTHE AND FARMINGTON.

MOZ001>031-035>038-043-044-053-054-240000-
...NORTHERN AND WESTERN MISSOURI...

CITY           SKY/WX    TMP DP  RH WIND       PRES   REMARKS
KANSAS CTY INT LGT RAIN  59  48  67 N9        29.79F
LEE`S SUMMIT   PTSUNNY   62  50  64 NW5       29.79F
ST JOSEPH      CLOUDY    61  47  59 NW18G24   29.80F
CHILLICOTHE      N/A     63  48  58 VRB7      29.78F

$$
MOZ066>068-077>081-088>096-101>105-240000-
...SOUTHWEST MISSOURI...

CITY           SKY/WX    TMP DP  RH WIND       PRES   REMARKS
SPRINGFIELD    MOSUNNY   66  49  54 NW14      29.78F
JOPLIN         MOSUNNY   68  48  48 NW10      29.80F
BRANSON        CLOUDY    63  54  72 NW9G18    29.78F

$$
MOZ032>034-039>042-045>050-055>058-069>072-240000-
...CENTRAL MISSOURI...

CITY           SKY/WX    TMP DP  RH WIND       PRES   REMARKS
COLUMBIA       NOT AVBL
JEFFERSON CITY PTSUNNY   68  48  48 NW8       29.74F
ROLLA          PTSUNNY   63  54  72 NW7       29.74S
SEDALIA        CLOUDY    65  50  58 NW13      29.77F
WARRENSBURG    CLOUDY    61  46  59 NW9       29.78F

$$
MOZ051-052-059>065-240000-
...EAST CENTRAL MISSOURI...

CITY           SKY/WX    TMP DP  RH WIND       PRES   REMARKS
ST LOUIS INTL  CLOUDY    63  54  72 N10       29.72S

$$
MOZ072>076-082>087-097>100-106>115-240000-
...SOUTH CENTRAL AND SOUTHEAST MISSOURI...

CITY           SKY/WX    TMP DP  RH WIND       PRES   REMARKS
CAPE GIRARDEAU CLOUDY    70  55  59 W7        29.67F
POPLAR BLUFF   HVY RAIN  60  58  92 N7        29.71R FOG
WEST PLAINS    CLOUDY    65  55  70 NW7       29.74S

$$



USA.gov is the U.S. government's official web portal to all federal, state and local government web resources and services.